User: anonymous   Login
Location: Antichan
(42.9728°N, 0.6667°E)
Time: 16:05:25
(UTC+00:00)
Language:

NOSS 3-2 (C) - Orbit

View from above orbital plane
View from above orbital plane
View from above satellite
View from above satellite

Ground track
Ground track

The orbit data is extracted from the following two-line orbital elements,

1 28097U 03054C   20276.71097121 0.00000000  00000-0  00000-0 0    06
2 28097  63.3946 124.3567 0416290 359.4554   0.5627 13.40766496    00
Epoch (UTC): 02 October 2020 17:03:47
Eccentricity: 0.0416290
inclination: 63.3946°
perigee height: 795 km
apogee height: 1418 km
right ascension of ascending node: 124.3567°
argument of perigee: 359.4554°
revolutions per day: 13.40766496
mean anomaly at epoch: 0.5627°
orbit number at epoch: 0

The dashed part of the orbit path shows where the satellite is in the earth's shadow,  

DLR